Find OneWeb SL0301

NORAD ID: 49090 Int'l Des: 2021-075 Owner: ONEWEBN Country: UK Constellation: oneweb operational
LEOCIRCULARPOLARONEWEB_TYPE

当前视图

正在加载3D地球...

About OneWeb SL0301

OneWeb SL0301 (NORAD 49090) is a oneweb constellation satellite launched Aug 21, 2021 by ONEWEBN of UK. It operates in LEO, CIRCULAR, POLAR, ONEWEB_TYPE orbit with a mass of 148.00 kg.

关于 OneWeb SL0301

正在加载描述...

即将过境

Passes for default location (London). Set your location on the main map for personalized predictions.

高度历史

Loading altitude history...

两行轨道根数

1 49090U 21075R 26169.00305333 -.00000467 00000-0 -13332-2 0 9991
2 49090 87.8947 350.4925 0001673 80.7364 279.3954 13.12443045234678
Epoch: Jun 18, 2026 • Age: 14 hours

当前状态

高度 1222.6 km
速度 7.24 km/s
星下点 -21.67°S, 55.83°E
发射日期 Aug 21, 2021
运行时间 4.8 years
类型 internet

技术详情

分类 Payload
质量 148.00 kg
干质量 140.00 kg
总质量 148.00 kg
长度 1.30 m
直径 1.00 m
跨度 5.00 m
形状 Trapezoid+2 pan
制造商 ONEWUS
平台类型 ARROW
阶段状态 In Orbit
所有者/国家 ONEWEBN/UK

Most Searched